APG321 RPVA-RPLL

Flight info

Callsign APG321
Flight time 0h 59m
Altitude 32000
Route MALAG5R MALAG W9 AKDAP AKDAP3R
Aircraft A320/M-SDE3FGHIRWY/LB1

Departure

Time 2026-04-25 02:39
Airport Daniel Z. Romualdez Airport (RPVA)

Arrival

Time 2026-04-25 03:39
Airport Ninoy Aquino International Airport (RPLL)
Time Latitude Longitude Altitude Speed Heading
2026-04-25 02:21 11.22684 125.02653 16 ft 0 kts 308°
2026-04-25 02:34 11.22688 125.02654 21 ft 1 kts 352°
2026-04-25 02:34 11.22690 125.02659 16 ft 1 kts 53°
2026-04-25 02:34 11.22686 125.02668 21 ft 3 kts 117°
2026-04-25 02:34 11.22655 125.02683 17 ft 7 kts 171°
2026-04-25 02:35 11.22594 125.02687 17 ft 9 kts 163°
2026-04-25 02:35 11.22564 125.02729 19 ft 7 kts 103°
2026-04-25 02:35 11.22536 125.02761 18 ft 7 kts 174°
2026-04-25 02:35 11.22476 125.02756 17 ft 10 kts 184°
2026-04-25 02:36 11.22390 125.02750 17 ft 15 kts 183°
2026-04-25 02:36 11.22279 125.02743 17 ft 17 kts 184°
2026-04-25 02:36 11.22161 125.02735 18 ft 17 kts 184°
2026-04-25 02:36 11.22035 125.02727 18 ft 19 kts 183°
2026-04-25 02:37 11.21905 125.02719 18 ft 14 kts 180°
2026-04-25 02:37 11.21823 125.02746 16 ft 9 kts 177°
2026-04-25 02:37 11.21808 125.02716 16 ft 4 kts 303°
2026-04-25 02:37 11.21825 125.02713 18 ft 0 kts
2026-04-25 02:38 11.21826 125.02713 16 ft 1 kts
2026-04-25 02:38 11.21974 125.02723 17 ft 58 kts
2026-04-25 02:39 11.22613 125.02765 17 ft 124 kts
2026-04-25 02:39 11.23635 125.02828 191 ft 156 kts
2026-04-25 02:39 11.24721 125.02887 753 ft 158 kts
2026-04-25 02:39 11.25820 125.02961 1427 ft 157 kts
2026-04-25 02:40 11.26909 125.03037 1941 ft 156 kts
2026-04-25 02:40 11.27991 125.03113 2354 ft 156 kts
2026-04-25 02:40 11.29142 125.03198 3027 ft 169 kts
2026-04-25 02:40 11.30322 125.03283 3518 ft 178 kts
2026-04-25 02:41 11.31636 125.03380 3843 ft 199 kts
2026-04-25 02:41 11.33106 125.03364 4032 ft 227 kts 348°
2026-04-25 02:41 11.34552 125.02541 4511 ft 246 kts 323°
2026-04-25 02:41 11.35809 125.01326 5338 ft 251 kts 316°
2026-04-25 02:42 11.37009 125.00009 6120 ft 254 kts 315°
2026-04-25 02:42 11.38211 124.98679 6823 ft 256 kts 315°
2026-04-25 02:42 11.39451 124.97356 7522 ft 259 kts 317°
2026-04-25 02:42 11.40729 124.96039 8194 ft 262 kts 317°
2026-04-25 02:43 11.42026 124.94739 8884 ft 265 kts 318°
2026-04-25 02:43 11.43363 124.93422 9606 ft 268 kts 318°
2026-04-25 02:43 11.44717 124.92103 10257 ft 270 kts 319°
2026-04-25 02:43 11.46089 124.90772 10893 ft 272 kts 318°
2026-04-25 02:44 11.47447 124.89458 11506 ft 274 kts 318°
2026-04-25 02:44 11.48839 124.88114 12144 ft 276 kts 318°
2026-04-25 02:44 11.50241 124.86759 12768 ft 278 kts 317°
2026-04-25 02:44 11.51652 124.85395 13408 ft 280 kts 317°
2026-04-25 02:45 11.53071 124.84021 14007 ft 282 kts 317°
2026-04-25 02:45 11.54501 124.82635 14558 ft 284 kts 316°
2026-04-25 02:45 11.55945 124.81236 15113 ft 287 kts 316°
2026-04-25 02:45 11.57382 124.79849 15632 ft 289 kts 318°
2026-04-25 02:46 11.58965 124.78564 16139 ft 292 kts 326°
2026-04-25 02:46 11.60678 124.77418 16661 ft 295 kts 327°
2026-04-25 02:46 11.62406 124.76261 17158 ft 298 kts 326°
2026-04-25 02:46 11.64150 124.75088 17667 ft 301 kts 326°
2026-04-25 02:47 11.65906 124.73902 18180 ft 304 kts 326°
2026-04-25 02:47 11.67656 124.72720 18608 ft 306 kts 326°
2026-04-25 02:47 11.69441 124.71515 19042 ft 309 kts 326°
2026-04-25 02:47 11.71251 124.70297 19472 ft 312 kts 326°
2026-04-25 02:48 11.73073 124.69071 19911 ft 314 kts 326°
2026-04-25 02:48 11.74904 124.67839 20358 ft 315 kts 326°
2026-04-25 02:48 11.76744 124.66599 20790 ft 318 kts 326°
2026-04-25 02:48 11.78575 124.65362 21203 ft 321 kts 326°
2026-04-25 02:49 11.80443 124.64099 21619 ft 323 kts 326°
2026-04-25 02:49 11.82329 124.62827 22055 ft 326 kts 326°
2026-04-25 02:49 11.84235 124.61543 22468 ft 329 kts 326°
2026-04-25 02:49 11.86153 124.60250 22896 ft 331 kts 326°
2026-04-25 02:50 11.88085 124.58947 23295 ft 334 kts 326°
2026-04-25 02:50 11.90034 124.57631 23670 ft 337 kts 326°
2026-04-25 02:50 11.91972 124.56325 24024 ft 338 kts 326°
2026-04-25 02:50 11.93949 124.54992 24375 ft 340 kts 326°
2026-04-25 02:51 11.95936 124.53651 24731 ft 342 kts 326°
2026-04-25 02:51 11.97899 124.52326 25092 ft 343 kts 326°
2026-04-25 02:51 11.99900 124.50978 25451 ft 344 kts 325°
2026-04-25 02:51 12.01906 124.49624 25803 ft 346 kts 325°
2026-04-25 02:52 12.03915 124.48264 26161 ft 347 kts 325°
2026-04-25 02:52 12.05943 124.46894 26504 ft 349 kts 325°
2026-04-25 02:52 12.07979 124.45519 26844 ft 351 kts 325°
2026-04-25 02:52 12.10019 124.44139 27195 ft 352 kts 325°
2026-04-25 02:53 12.12045 124.42767 27531 ft 354 kts 325°
2026-04-25 02:53 12.14105 124.41375 27854 ft 356 kts 325°
2026-04-25 02:53 12.16183 124.39973 28187 ft 358 kts 325°
2026-04-25 02:53 12.18268 124.38564 28528 ft 359 kts 325°
2026-04-25 02:54 12.20362 124.37143 28834 ft 362 kts 325°
2026-04-25 02:54 12.22470 124.35713 29156 ft 364 kts 325°
2026-04-25 02:54 12.24589 124.34276 29483 ft 366 kts 325°
2026-04-25 02:54 12.26687 124.32856 29786 ft 368 kts 325°
2026-04-25 02:55 12.28833 124.31402 30083 ft 370 kts 325°
2026-04-25 02:55 12.30994 124.29940 30337 ft 372 kts 325°
2026-04-25 02:55 12.33165 124.28473 30590 ft 375 kts 325°
2026-04-25 02:55 12.35354 124.26993 30837 ft 378 kts 325°
2026-04-25 02:56 12.37556 124.25496 31068 ft 380 kts 323°
2026-04-25 02:56 12.39694 124.23941 31314 ft 383 kts 322°
2026-04-25 02:56 12.41829 124.22285 31562 ft 385 kts 320°
2026-04-25 02:56 12.43950 124.20589 31827 ft 387 kts 320°
2026-04-25 02:57 12.46083 124.18870 31961 ft 394 kts 320°
2026-04-25 02:57 12.50522 124.15332 31995 ft 414 kts 321°
2026-04-25 02:58 12.55180 124.11681 31991 ft 433 kts 321°
2026-04-25 02:58 12.60075 124.07873 31994 ft 450 kts 321°
2026-04-25 02:59 12.65140 124.03919 31994 ft 464 kts 321°
2026-04-25 02:59 12.70266 123.99915 31997 ft 467 kts 321°
2026-04-25 03:00 12.75452 123.95857 31993 ft 467 kts 320°
2026-04-25 03:00 12.80586 123.91834 31995 ft 467 kts 320°
2026-04-25 03:01 12.85714 123.87812 31996 ft 467 kts 320°
2026-04-25 03:01 12.90855 123.83788 31994 ft 467 kts 321°
2026-04-25 03:02 12.96021 123.79740 31992 ft 467 kts 320°
2026-04-25 03:02 13.01178 123.75689 31988 ft 466 kts 320°
2026-04-25 03:03 13.06308 123.71656 31991 ft 466 kts 320°
2026-04-25 03:03 13.11465 123.67596 31995 ft 466 kts 320°
2026-04-25 03:04 13.16500 123.63395 31993 ft 466 kts 317°
2026-04-25 03:04 13.21407 123.59047 31996 ft 465 kts 316°
2026-04-25 03:05 13.28745 123.52572 31999 ft 465 kts 317°
2026-04-25 03:05 13.33691 123.48285 31997 ft 465 kts 317°
2026-04-25 03:06 13.38638 123.43997 31995 ft 464 kts 317°
2026-04-25 03:06 13.43576 123.39711 31999 ft 464 kts 317°
2026-04-25 03:07 13.48470 123.35450 31997 ft 463 kts 317°
2026-04-25 03:07 13.53389 123.31159 31994 ft 463 kts 317°
2026-04-25 03:08 13.57991 123.26555 31987 ft 458 kts 304°
2026-04-25 03:08 13.61113 123.20941 31993 ft 454 kts 294°
2026-04-25 03:09 13.63882 123.15109 31995 ft 453 kts 294°
2026-04-25 03:09 13.66657 123.09283 31999 ft 453 kts 294°
2026-04-25 03:10 13.69418 123.03511 31995 ft 452 kts 294°
2026-04-25 03:10 13.72187 122.97701 31995 ft 452 kts 294°
2026-04-25 03:11 13.74946 122.91893 31994 ft 451 kts 294°
2026-04-25 03:11 13.77710 122.86089 31992 ft 451 kts 294°
2026-04-25 03:12 13.80474 122.80294 31996 ft 451 kts 294°
2026-04-25 03:12 13.83224 122.74523 31996 ft 451 kts 294°
2026-04-25 03:13 13.85981 122.68730 32000 ft 450 kts 294°
2026-04-25 03:13 13.88725 122.62933 31999 ft 450 kts 294°
2026-04-25 03:14 13.91468 122.57134 32002 ft 450 kts 294°
2026-04-25 03:14 13.93750 122.52323 31997 ft 449 kts 294°
2026-04-25 03:15 13.96942 122.45589 31997 ft 449 kts 294°
2026-04-25 03:15 13.99214 122.40783 31997 ft 449 kts 294°
2026-04-25 03:16 14.01947 122.35001 31956 ft 449 kts 294°
2026-04-25 03:16 14.03313 122.32112 31710 ft 448 kts 294°
2026-04-25 03:16 14.04681 122.29219 31474 ft 448 kts 294°
2026-04-25 03:17 14.06048 122.26325 31237 ft 449 kts 294°
2026-04-25 03:17 14.07415 122.23431 31004 ft 449 kts 294°
2026-04-25 03:17 14.08783 122.20533 30782 ft 449 kts 294°
2026-04-25 03:17 14.10148 122.17636 30549 ft 450 kts 294°
2026-04-25 03:18 14.11515 122.14726 30322 ft 450 kts 294°
2026-04-25 03:18 14.12862 122.11859 30101 ft 450 kts 294°
2026-04-25 03:18 14.14232 122.08952 29841 ft 449 kts 294°
2026-04-25 03:18 14.15599 122.06054 29563 ft 447 kts 294°
2026-04-25 03:19 14.16942 122.03209 29302 ft 446 kts 294°
2026-04-25 03:19 14.18290 122.00350 29042 ft 438 kts 294°
2026-04-25 03:19 14.19606 121.97560 28780 ft 425 kts 294°
2026-04-25 03:19 14.20883 121.94851 28524 ft 415 kts 294°
2026-04-25 03:20 14.22127 121.92209 28273 ft 405 kts 294°
2026-04-25 03:20 14.23305 121.89610 28017 ft 395 kts 292°
2026-04-25 03:20 14.24409 121.87053 27783 ft 386 kts 292°
2026-04-25 03:20 14.25459 121.84562 27391 ft 382 kts 291°
2026-04-25 03:21 14.26507 121.82052 26937 ft 380 kts 291°
2026-04-25 03:21 14.27553 121.79560 26436 ft 376 kts 291°
2026-04-25 03:21 14.28594 121.77102 25681 ft 373 kts 292°
2026-04-25 03:21 14.29635 121.74660 24944 ft 370 kts 292°
2026-04-25 03:22 14.30667 121.72248 24383 ft 365 kts 292°
2026-04-25 03:22 14.31697 121.69843 23864 ft 368 kts 292°
2026-04-25 03:22 14.32734 121.67420 23340 ft 369 kts 292°
2026-04-25 03:22 14.33766 121.65017 22991 ft 363 kts 292°
2026-04-25 03:23 14.34789 121.62637 22525 ft 361 kts 292°
2026-04-25 03:23 14.35566 121.60240 21989 ft 352 kts 277°
2026-04-25 03:23 14.35613 121.57752 21278 ft 345 kts 262°
2026-04-25 03:23 14.35324 121.55301 20559 ft 342 kts 262°
2026-04-25 03:24 14.35039 121.52876 19888 ft 339 kts 263°
2026-04-25 03:24 14.34759 121.50476 19234 ft 336 kts 263°
2026-04-25 03:24 14.34482 121.48094 18610 ft 332 kts 263°
2026-04-25 03:24 14.34209 121.45733 17931 ft 330 kts 264°
2026-04-25 03:25 14.33943 121.43421 17244 ft 327 kts 263°
2026-04-25 03:25 14.33676 121.41107 16571 ft 324 kts 263°
2026-04-25 03:25 14.33412 121.38809 15913 ft 321 kts 263°
2026-04-25 03:25 14.33151 121.36536 15404 ft 314 kts 262°
2026-04-25 03:26 14.32896 121.34316 14991 ft 312 kts 262°
2026-04-25 03:26 14.32637 121.32075 14558 ft 315 kts 262°
2026-04-25 03:26 14.32375 121.29818 14140 ft 317 kts 262°
2026-04-25 03:26 14.32116 121.27594 13757 ft 317 kts 262°
2026-04-25 03:27 14.31855 121.25353 13486 ft 312 kts 262°
2026-04-25 03:27 14.31596 121.23130 13072 ft 311 kts 262°
2026-04-25 03:27 14.31339 121.20929 12442 ft 307 kts 262°
2026-04-25 03:27 14.31083 121.18749 11953 ft 306 kts 262°
2026-04-25 03:28 14.30833 121.16593 11506 ft 297 kts 263°
2026-04-25 03:28 14.30588 121.14504 11082 ft 288 kts 263°
2026-04-25 03:28 14.30350 121.12478 10670 ft 280 kts 263°
2026-04-25 03:28 14.30117 121.10503 10260 ft 274 kts 263°
2026-04-25 03:29 14.29893 121.08598 9859 ft 268 kts 263°
2026-04-25 03:29 14.29671 121.06708 9436 ft 262 kts 263°
2026-04-25 03:29 14.29450 121.04831 9027 ft 264 kts 263°
2026-04-25 03:29 14.29229 121.02941 8629 ft 266 kts 263°
2026-04-25 03:30 14.29007 121.01036 8214 ft 268 kts 263°
2026-04-25 03:30 14.28781 120.99110 7796 ft 272 kts 263°
2026-04-25 03:30 14.28553 120.97194 7367 ft 270 kts 263°
2026-04-25 03:30 14.28331 120.95313 7174 ft 256 kts 263°
2026-04-25 03:31 14.28120 120.93511 7094 ft 249 kts 263°
2026-04-25 03:31 14.27916 120.91770 6989 ft 240 kts 263°
2026-04-25 03:31 14.27878 120.90073 6878 ft 231 kts 281°
2026-04-25 03:31 14.28437 120.88558 6782 ft 225 kts 304°
2026-04-25 03:32 14.29513 120.87386 6444 ft 228 kts 329°
2026-04-25 03:32 14.30903 120.86568 6084 ft 231 kts 333°
2026-04-25 03:32 14.32283 120.85776 5748 ft 228 kts 333°
2026-04-25 03:32 14.33660 120.84982 5430 ft 227 kts 333°
2026-04-25 03:33 14.35041 120.84185 5116 ft 223 kts 333°
2026-04-25 03:33 14.36366 120.83417 4796 ft 215 kts 333°
2026-04-25 03:33 14.37677 120.82698 4460 ft 213 kts 342°
2026-04-25 03:33 14.39137 120.82570 4020 ft 213 kts 15°
2026-04-25 03:34 14.40398 120.83300 3575 ft 203 kts 49°
2026-04-25 03:34 14.41135 120.84464 3302 ft 187 kts 62°
2026-04-25 03:34 14.41769 120.85602 3071 ft 185 kts 62°
2026-04-25 03:34 14.42403 120.86743 2823 ft 180 kts 61°
2026-04-25 03:35 14.43020 120.87849 2605 ft 175 kts 60°
2026-04-25 03:35 14.43612 120.88914 2387 ft 168 kts 62°
2026-04-25 03:35 14.44191 120.89953 2169 ft 171 kts 61°
2026-04-25 03:35 14.44796 120.91041 1923 ft 172 kts 62°
2026-04-25 03:36 14.45355 120.92044 1760 ft 159 kts 65°
2026-04-25 03:36 14.45916 120.93055 1530 ft 162 kts 62°
2026-04-25 03:36 14.46465 120.94040 1304 ft 151 kts 63°
2026-04-25 03:36 14.46978 120.94963 1129 ft 145 kts 62°
2026-04-25 03:37 14.47481 120.95867 952 ft 143 kts 61°
2026-04-25 03:37 14.47972 120.96751 777 ft 143 kts 62°
2026-04-25 03:37 14.48468 120.97643 610 ft 143 kts 64°
2026-04-25 03:37 14.48962 120.98527 439 ft 144 kts 62°
2026-04-25 03:38 14.49460 120.99418 265 ft 143 kts 63°
2026-04-25 03:38 14.49944 121.00295 86 ft 141 kts 63°
2026-04-25 03:38 14.50374 121.01067 67 ft 101 kts 60°
2026-04-25 03:38 14.50637 121.01541 61 ft 51 kts 60°
2026-04-25 03:39 14.50781 121.01729 65 ft 21 kts 38°
2026-04-25 03:39 14.50878 121.01789 60 ft 12 kts 356°
2026-04-25 03:39 14.50897 121.01728 60 ft 10 kts 241°
2026-04-25 03:39 14.50866 121.01674 66 ft 8 kts 240°
2026-04-25 03:40 14.50839 121.01624 65 ft 9 kts 240°
2026-04-25 03:40 14.50805 121.01564 66 ft 9 kts 240°
2026-04-25 03:40 14.50776 121.01511 64 ft 8 kts 240°
2026-04-25 03:40 14.50751 121.01465 64 ft 7 kts 240°
2026-04-25 03:41 14.50725 121.01420 64 ft 10 kts 239°
2026-04-25 03:41 14.50690 121.01354 63 ft 9 kts 254°
2026-04-25 03:41 14.50722 121.01313 67 ft 7 kts 348°
2026-04-25 03:41 14.50761 121.01336 68 ft 6 kts 58°
2026-04-25 03:42 14.50783 121.01374 65 ft 8 kts 60°
2026-04-25 03:42 14.50813 121.01408 64 ft 6 kts
2026-04-25 03:42 14.50844 121.01392 65 ft 4 kts 329°
2026-04-25 03:42 14.50868 121.01378 67 ft 3 kts 330°
2026-04-25 03:43 14.50884 121.01368 65 ft 1 kts 330°